Tracking 28790 objects as of 19-Apr-2024
HD Live streaming from Space Station
objects crossing your sky now

NIMBUS 2 DEB

Track NIMBUS 2 DEB now!
10-day predictions


NORAD ID: 42442
Int'l Code: 1966-040BV
Perigee: 1,062.3 km
Apogee: 1,134.6 km
Inclination: 100.3 °
Period: 107.1 minutes
Semi major axis: 7469 km
RCS: Unknown
Launch date: May 15, 1966
Source: United States (US)
Launch site: AIR FORCE WESTERN TEST RANGE (AFWTR)

Note: This is SATELLITE DEBRIS
Your satellite tracking list
Your tracking list is empty




NASA's NSSDC Master Catalog

Two Line Element Set (TLE):
1 42442U 66040BV  24096.26617626  .00005512  00000-0  94058-2 0  9990
2 42442 100.3181 264.3657 0048393 315.5147  44.2100 13.44832066124519
Source of the keplerian elements: AFSPC